Flag for China Weather past 2 weeks in Hangzhou, Zhejiang, China

Now
43 °F

Partly sunny.


Feels Like: 38 °F
Forecast: 42 / 49 °F
Wind: 8 mph from Southeast

Location: Hangzhou Airport

Current Time: Feb 27, 2015 at 9:04:22 AM

Latest Report: Feb 27, 2015 at 8:30 AM


Visibility: N/A

Pressure: 30.30 "Hg

Humidity: 66%

Dew point: 32 °F

Location of HangzhouLocation

Historic Weather in Hangzhou — Graph

°F

Hangzhou temperature yesterday

Maximum temperature yesterday: 52 °F (at 10:30 AM)
Minimum temperature yesterday: 46 °F (at 6:30 PM)
Average temperature yesterday: 48 °F

Past Weeks' High & Low Weather Summary

 TemperatureHumidityPressure
High70 °F (Feb 14, 3:00 PM)88% (Feb 20, 6:30 PM)30.45 "Hg (Feb 20, 6:30 PM)
Low37 °F (Feb 18, 4:00 AM)13% (Feb 12, 1:00 PM)29.89 "Hg (Feb 15, 3:30 PM)
Average50 °F69%30.13 "Hg
* Reported Feb 12 7:00 AM — Feb 27 7:30 AM, Hangzhou, Weather by CustomWeather, © 2015

Note: Actual official high and low records may vary slightly from our data, if they occured in-between our weather recording intervals... More about our weather records

Advertising

Hangzhou weather history for previous 24 hours

 ConditionsComfort  
Time TempWeatherWind HumidityBarometerVisibility
7:30 AM
Fri, Feb 27
43 °FSprinkles. Partly sunny.8 mph66%30.30 "HgN/A
7:00 AM43 °FSprinkles. Partly sunny.8 mph71%30.30 "HgN/A
6:30 AM43 °FSprinkles. Partly sunny.6 mph71%30.30 "HgN/A
6:00 AM43 °FSprinkles. Passing clouds.10 mph71%30.27 "HgN/A
5:30 AM43 °FSprinkles. Passing clouds.8 mph81%30.27 "HgN/A
5:00 AM45 °FSprinkles. Passing clouds.10 mph76%30.30 "HgN/A
4:30 AM45 °FSprinkles. Passing clouds.6 mph76%30.27 "HgN/A
4:00 AM45 °FLight rain. Passing clouds.8 mph71%30.27 "HgN/A
3:30 AM45 °FPassing clouds.6 mph66%30.27 "HgN/A
3:00 AM45 °FPassing clouds.10 mph71%30.24 "HgN/A
2:30 AM45 °FSprinkles. Fog.10 mph81%30.27 "Hg3 mi
2:00 AM45 °FSprinkles. Fog.8 mph81%30.27 "Hg3 mi
1:30 AM45 °FSprinkles. Fog.6 mph87%30.27 "Hg3 mi
1:00 AM45 °FSprinkles. Fog.8 mph87%30.27 "Hg3 mi
12:30 AM46 °FSprinkles. Fog.6 mph82%30.27 "Hg3 mi
12:00 AM46 °FSprinkles. Fog.6 mph82%30.27 "Hg3 mi
11:30 PM
Thu, Feb 26
46 °FLight rain. Passing clouds.3 mph82%30.27 "Hg4 mi
11:00 PM46 °FLight rain. Passing clouds.6 mph82%30.27 "Hg4 mi
10:30 PM46 °FLight rain. Fog.8 mph76%30.27 "Hg3 mi
10:00 PM46 °FLight rain. Fog.8 mph76%30.27 "Hg3 mi
9:30 PM46 °FLight rain. Fog.8 mph76%30.27 "Hg3 mi
9:00 PM46 °FLight rain. Fog.8 mph76%30.27 "Hg2 mi
8:30 PM46 °FLight rain. Fog.8 mph82%30.24 "Hg2 mi
8:00 PM46 °FSprinkles. Fog.8 mph82%30.24 "Hg2 mi
7:30 PM46 °FSprinkles. Fog.8 mph82%30.24 "Hg2 mi
7:00 PM46 °FSprinkles. Fog.8 mph87%30.21 "Hg2 mi
6:30 PM46 °FSprinkles. Fog.8 mph87%30.18 "Hg2 mi
6:00 PM48 °FSprinkles. Fog.8 mph82%30.18 "Hg2 mi
5:30 PM48 °FSprinkles. Fog.8 mph82%30.18 "Hg2 mi
5:00 PM48 °FSprinkles. Fog.6 mph82%30.18 "Hg2 mi
4:30 PM48 °FRain showers. Fog.6 mph87%30.15 "Hg1 mi
4:00 PM48 °FSprinkles. Fog.6 mph87%30.15 "Hg2 mi
3:30 PM48 °FSprinkles. Fog.6 mph82%30.15 "Hg2 mi
3:00 PM48 °FSprinkles. Fog.6 mph82%30.15 "Hg2 mi
2:30 PM50 °FSprinkles. Fog.6 mph82%30.15 "Hg2 mi
2:00 PM50 °FSprinkles. Fog.3 mph82%30.15 "Hg2 mi
1:30 PM50 °FFog.1 mph82%30.15 "Hg3 mi
1:00 PM52 °FFog.6 mph77%30.15 "Hg3 mi
12:30 PM52 °FPartly sunny.8 mph72%30.15 "Hg3 mi
11:00 AM52 °FFog.3 mph77%30.15 "Hg3 mi
10:30 AM52 °FFog.3 mph77%30.15 "Hg2 mi
10:00 AM50 °FFog.8 mph82%30.15 "Hg2 mi
9:30 AM50 °FFog.6 mph82%30.15 "Hg2 mi
9:00 AM50 °FFog.6 mph82%30.15 "Hg2 mi
Weather by CustomWeather, © 2015

See weather overviewHow to use our weather pages